Temperature
8 8 8 9 9 9 9 10 10 12 12 13 14 14 13 12 11 10 9 9 9 10 10 10 10 10 9 9 8 8 7 6 5 4 4 3 3 3 3 3 3 3 4 4
7 8 8 8 9 9 9 10 10 10 11 13 12 11 11 11 10 10 10 10 10 10 10 10 10 10 9 9 8 7 6 5 4 3 2 2 2 2 2 2 2 3 3 3
8 7 8 9 9 9 9 9 10 10 11 12 11 11 10 10 10 10 10 10 10 10 11 11 11 10 9 8 7 6 5 4 3 2 2 1 1 1 1 1 2 2 2 2
7 7 7 9 8 8 8 9 9 9 10 10 9 9 9 9 9 9 9 9 10 10 11 11 10 10 9 8 7 6 5 3 2 2 1 0 0 0 1 1 1 1 1 2
7 8 8 9 8 8 8 8 8 8 9 8 8 8 9 9 8 8 9 9 10 10 10 10 10 9 9 8 7 5 4 3 2 1 1 0 -0 0 0 1 1 1 1 1
7 7 8 9 8 7 8 8 8 7 7 7 7 9 10 8 8 8 9 9 9 10 10 10 10 9 8 7 6 5 4 3 2 1 0 -0 -0 -0 0 0 0 1 1 1
7 7 8 8 7 7 8 8 6 6 6 6 6 7 7 6 7 8 8 9 9 9 10 10 9 9 8 7 6 5 4 3 2 1 0 0 -0 -0 0 0 0 0 0 1
7 7 7 7 7 7 6 5 5 5 5 4 5 5 6 6 7 8 8 8 9 9 9 9 8 8 8 7 6 5 4 3 2 1 1 0 0 0 0 0 0 0 0 0
7 7 6 5 5 4 3 3 4 3 4 4 4 5 6 6 7 7 8 8 8 8 8 8 8 7 7 6 5 5 4 3 2 2 1 1 0 0 0 0 0 0 0 0
5 6 5 4 4 3 2 2 3 3 3 3 4 4 5 6 6 7 7 7 7 7 7 7 7 6 6 5 5 4 4 3 3 2 1 1 1 1 1 1 1 1 1 1
4 4 4 3 3 2 2 2 2 2 2 3 3 4 4 5 6 6 6 6 7 7 6 6 6 6 5 5 4 4 4 3 3 2 2 2 1 1 1 1 1 1 0 0
3 2 2 2 2 1 1 1 1 1 2 2 2 3 4 4 5 5 6 6 6 6 6 6 5 5 5 4 4 4 3 3 3 2 2 2 2 1 1 1 1 0 0 0
0 -0 -0 0 0 0 -0 0 0 0 1 1 2 2 3 3 4 5 5 5 5 5 5 5 5 5 4 4 4 4 3 3 3 3 2 2 2 1 1 1 1 1 1 0
-1 -1 -1 -0 -1 -1 -1 -1 -0 -0 0 1 1 1 2 2 3 3 4 4 4 4 5 5 4 4 4 4 3 3 3 3 2 2 2 2 2 1 1 1 1 1 1 0
-1 -2 -2 -2 -1 -1 -1 -1 -1 -1 -0 0 0 1 1 1 2 2 3 3 4 4 4 4 4 4 4 3 3 3 3 3 2 2 2 2 1 1 1 1 1 1 0 -0
-2 -2 -2 -2 -2 -2 -2 -2 -2 -1 -1 -1 -1 -0 0 1 1 2 2 2 3 3 3 3 3 3 3 3 3 3 3 3 2 2 2 2 1 1 1 1 0 0 0 -0
-3 -2 -2 -2 -2 -2 -3 -2 -2 -2 -2 -2 -1 -1 -1 -0 0 1 1 1 2 2 2 2 3 2 3 3 2 2 2 2 2 2 1 1 1 1 1 1 0 0 -0 -1
-2 -2 -3 -3 -3 -3 -3 -2 -2 -2 -2 -2 -2 -2 -1 -1 -1 -0 0 0 1 1 1 2 2 2 2 2 2 2 2 2 1 1 1 1 1 1 1 1 0 0 0 -1
-1 -2 -2 -2 -3 -3 -3 -3 -3 -3 -3 -3 -2 -2 -2 -2 -1 -1 -1 -0 -0 0 0 1 1 1 1 1 1 1 1 1 1 1 0 0 0 0 0 0 0 0 -0 -0
-1 -2 -2 -2 -2 -3 -3 -3 -3 -3 -3 -3 -3 -3 -2 -2 -2 -2 -1 -1 -1 -1 -0 -0 0 0 1 1 1 1 0 0 0 0 0 -0 -0 -0 -0 -0 -0 -0 -1 -1
-1 -2 -2 -2 -2 -3 -3 -3 -3 -3 -3 -3 -3 -3 -3 -3 -2 -2 -2 -2 -2 -1 -1 -1 -1 -0 -0 0 0 0 -0 -0 -0 -0 -0 -1 -1 -1 -1 -1 -1 -1 -1 -2
-2 -2 -2 -2 -2 -3 -3 -3 -3 -3 -3 -3 -3 -3 -3 -3 -3 -2 -2 -2 -2 -2 -2 -1 -1 -1 -1 -1 -1 -1 -1 -1 -1 -1 -1 -1 -1 -1 -1 -2 -2 -2 -2 -3
-2 -2 -2 -2 -3 -3 -3 -3 -3 -3 -4 -4 -4 -4 -4 -4 -3 -3 -3 -3 -2 -2 -2 -2 -2 -2 -1 -1 -1 -1 -1 -1 -2 -2 -2 -2 -2 -2 -2 -2 -3 -3 -3 -3
-2 -2 -2 -2 -3 -3 -3 -3 -3 -3 -4 -4 -4 -4 -4 -4 -4 -4 -3 -3 -3 -3 -2 -2 -2 -2 -2 -2 -2 -2 -2 -2 -2 -2 -2 -3 -3 -3 -3 -3 -3 -3 -3 -3
-2 -2 -2 -3 -3 -3 -3 -3 -3 -3 -4 -4 -4 -4 -4 -4 -4 -4 -4 -3 -3 -3 -3 -3 -2 -2 -2 -2 -3 -3 -3 -3 -3 -3 -3 -3 -3 -3 -3 -3 -4 -4 -4 -4
-2 -2 -2 -3 -3 -3 -3 -3 -4 -4 -4 -4 -4 -4 -4 -4 -4 -4 -4 -4 -3 -3 -3 -3 -3 -3 -3 -3 -3 -3 -3 -3 -3 -3 -3 -3 -3 -3 -3 -4 -4 -4 -4 -4
-2 -2 -3 -3 -3 -3 -3 -3 -4 -4 -4 -4 -4 -4 -4 -4 -4 -4 -4 -4 -4 -3 -3 -3 -3 -3 -3 -3 -3 -3 -3 -3 -3 -3 -3 -3 -3 -4 -4 -4 -4 -4 -4 -4
Wind_Speed
1 1 3 6 10 13 14 15 13 14 16 17 16 16 15 13 10 9 9 11 13 14 13 12 11 10 9 8 8 7 6 5 5 4 4 4 4 4 4 4 4 4 5 5
1 1 3 5 10 13 15 16 18 19 20 16 14 13 13 14 13 12 13 14 15 15 14 14 13 12 11 10 9 8 7 6 5 5 5 5 5 5 5 5 4 4 4 5
2 0 2 7 8 11 9 10 11 15 15 13 13 13 14 14 14 14 14 14 15 16 16 15 14 13 13 11 10 9 8 7 7 6 6 6 6 6 5 5 5 5 5 5
1 2 5 1 1 3 7 7 8 11 12 13 14 15 15 13 13 14 14 13 14 14 14 13 12 12 11 11 11 10 9 8 8 7 7 7 6 6 6 5 5 5 5 5
2 3 5 2 0 2 3 1 2 5 9 11 13 11 9 7 9 13 13 12 11 11 11 12 13 13 13 12 11 10 10 9 8 8 8 8 7 7 6 5 5 4 3 4
3 3 3 1 2 1 3 3 5 7 10 12 11 8 8 11 12 11 9 7 6 7 9 12 13 14 13 13 12 11 10 9 9 8 8 8 8 7 5 5 5 4 3 2
5 5 4 3 3 2 3 2 8 9 10 11 8 9 13 15 12 9 6 3 3 7 9 10 13 14 13 12 12 11 10 9 9 9 8 8 8 6 6 6 5 5 4 4
4 5 3 4 1 0 4 7 8 10 10 11 12 13 12 11 9 6 4 0 3 6 7 8 12 13 12 12 10 10 10 10 9 9 8 7 8 7 7 7 6 6 6 6
3 1 3 3 2 2 5 8 9 10 12 12 12 11 11 9 8 5 3 1 3 5 6 8 10 11 11 11 11 11 11 11 10 9 8 8 9 8 7 7 6 6 6 6
3 2 5 4 2 5 8 9 11 11 12 11 12 12 11 9 7 5 3 2 3 5 6 8 10 10 9 10 12 12 12 11 10 10 9 9 8 8 8 8 7 7 7 6
4 5 7 3 7 12 13 12 12 12 11 11 11 11 10 9 7 6 4 3 4 6 7 8 9 10 10 11 12 12 12 11 10 10 10 9 9 9 9 9 9 8 7 6
4 6 8 11 14 15 15 14 14 14 13 12 10 11 10 9 7 6 5 4 5 6 7 7 9 10 11 12 13 13 11 11 10 9 9 9 9 8 12 11 12 14 11 8
7 10 12 15 15 13 14 14 14 13 13 13 11 10 10 9 8 7 6 5 6 7 7 7 8 10 11 12 13 14 12 11 10 10 10 10 9 9 8 10 14 15 16 16
8 9 9 10 12 14 14 14 12 12 11 10 10 9 9 8 8 7 7 6 6 6 6 7 8 9 10 12 13 14 13 12 11 10 10 10 10 9 8 8 8 8 12 17
7 9 11 13 13 12 12 11 11 11 11 10 9 9 9 9 9 8 7 6 5 6 6 6 8 8 8 11 13 13 12 10 10 9 9 9 9 8 8 9 8 7 6 8
11 11 11 11 12 12 12 11 11 11 11 10 10 9 9 9 9 8 7 5 5 6 5 6 7 6 6 9 11 11 11 12 11 9 9 9 8 9 9 9 9 8 8 8
9 10 10 12 13 13 12 11 11 11 10 10 10 10 9 8 8 7 6 6 5 5 4 4 5 4 5 8 9 8 8 9 13 10 9 9 9 9 9 9 9 9 9 9
9 11 11 12 12 12 12 11 10 10 10 10 10 8 8 8 8 7 7 6 5 4 2 3 4 4 4 5 6 6 7 7 8 9 8 8 8 8 8 9 9 10 7 8
10 11 11 11 11 11 11 10 10 9 9 9 9 8 8 7 7 7 7 6 4 4 3 4 5 4 3 4 5 5 6 6 6 7 7 9 9 8 8 8 9 9 8 7
10 10 11 12 11 10 11 10 10 9 8 8 8 8 7 7 7 7 6 4 3 3 5 6 5 3 3 3 4 4 5 6 6 6 6 6 7 7 7 8 8 8 8 8
11 11 11 11 11 11 10 10 9 10 9 7 7 7 7 7 6 6 5 4 3 4 5 5 4 3 3 2 3 3 4 4 5 5 5 6 6 6 7 7 7 7 8 8
10 10 11 11 11 11 10 9 9 10 9 8 7 7 7 7 6 5 5 4 4 6 5 4 3 4 4 3 2 2 3 4 4 4 4 5 5 6 6 6 7 7 7 7
10 10 11 11 11 11 12 10 10 9 9 9 8 7 7 6 5 4 4 3 4 6 5 4 5 6 5 2 2 2 3 3 4 4 4 5 5 5 6 6 6 6 6 7
11 11 11 11 10 11 12 11 9 8 9 9 8 8 7 6 5 4 5 5 6 7 4 5 6 6 4 2 2 2 2 3 3 3 4 4 4 5 5 5 6 6 6 7
11 11 11 10 10 9 10 10 9 9 9 7 8 8 7 5 5 4 4 5 5 6 4 4 5 5 3 2 2 2 2 3 3 3 3 4 4 4 5 5 5 5 5 6
10 9 9 10 9 9 8 7 7 7 7 7 7 6 5 5 5 5 4 4 5 5 3 3 3 3 2 2 2 2 2 3 3 3 3 4 4 4 4 5 6 5 5 5
10 9 8 8 8 7 7 7 7 7 7 7 7 6 5 5 4 4 4 4 3 3 3 2 2 2 2 2 2 2 2 2 3 3 3 3 4 4 4 5 5 5 4 5
Wind_Direction
87 111 172 210 217 214 219 234 246 255 258 263 271 281 286 288 281 261 233 215 209 205 200 194 191 190 187 186 185 184 187 192 193 183 172 161 152 140 128 117 108 106 106 103
145 160 216 242 237 231 235 241 249 261 268 275 283 285 281 277 272 258 243 229 219 212 206 201 197 192 187 186 184 186 193 193 183 179 174 167 157 145 135 124 117 111 109 108
183 156 259 256 244 229 228 232 243 256 271 296 297 289 283 280 273 262 253 240 225 216 210 205 199 190 187 183 180 186 192 189 184 182 177 168 159 151 143 134 126 118 113 111
160 202 235 42 57 242 236 258 260 270 289 300 300 297 288 280 277 269 259 247 233 222 212 203 191 184 178 175 179 186 190 189 186 183 177 167 162 156 147 140 135 129 123 120
200 244 272 306 328 212 213 258 357 305 310 317 319 303 285 290 286 275 268 255 241 222 204 188 180 175 170 174 180 187 190 189 187 182 175 170 167 160 152 144 139 137 134 129
196 242 246 65 23 281 216 193 25 341 329 328 327 315 323 340 320 300 285 264 233 196 178 175 172 168 171 177 183 191 190 187 184 181 178 175 168 159 152 150 150 151 146 150
222 241 266 352 326 206 236 356 345 333 328 327 315 296 307 316 318 316 308 270 184 168 171 171 166 168 175 180 189 187 180 178 179 180 178 171 162 158 155 160 164 173 178 190
214 227 244 24 47 28 342 334 324 326 326 321 310 307 310 315 320 325 330 342 160 162 164 163 168 173 179 185 182 174 173 176 179 178 174 169 165 163 166 173 180 190 200 207
246 281 33 13 37 9 342 323 322 321 321 319 315 315 318 317 319 322 319 237 178 169 162 168 178 183 185 182 174 173 175 180 181 179 178 176 177 176 178 188 197 202 207 215
282 291 337 326 358 351 338 322 315 313 314 314 312 313 314 312 310 308 290 237 198 184 182 185 189 194 191 176 174 176 182 184 184 185 185 185 188 190 193 198 204 208 211 217
285 315 330 331 334 332 326 321 317 316 314 311 309 307 308 305 301 296 280 244 215 208 208 203 194 197 191 181 178 183 187 188 190 193 193 196 201 205 207 212 211 209 212 214
301 327 311 300 312 318 316 315 317 313 311 312 309 304 305 301 296 287 275 252 235 228 223 212 201 200 195 188 187 188 191 193 195 196 198 201 205 215 224 224 224 227 229 226
285 300 293 291 300 310 310 309 310 308 305 305 307 305 302 299 299 289 276 260 249 242 234 222 211 208 200 193 194 197 199 197 196 198 200 202 205 210 216 222 229 233 232 230
295 303 296 302 308 311 310 308 307 305 305 305 304 306 304 299 297 292 284 278 270 258 243 230 221 218 206 198 199 204 206 203 200 202 202 204 206 209 211 209 210 221 226 227
310 309 298 302 306 309 311 311 310 309 311 311 310 306 305 302 299 298 297 293 278 261 250 238 232 228 208 202 204 208 209 208 206 207 205 206 206 207 210 213 217 215 206 217
310 307 304 308 313 315 316 317 314 313 313 312 310 308 307 303 298 296 297 296 280 269 263 251 245 240 215 208 209 212 215 211 204 206 205 206 206 207 211 213 215 217 217 211
308 312 315 314 314 314 315 314 311 309 310 309 308 309 308 305 299 296 300 301 286 277 280 274 270 265 230 216 213 214 215 211 205 208 210 209 209 211 212 213 216 220 221 210
284 287 293 297 301 304 307 309 310 309 307 308 309 308 307 305 301 302 305 303 289 269 281 299 296 283 251 228 220 216 213 211 207 211 212 212 214 215 215 217 220 223 224 214
293 291 293 293 293 294 296 299 301 303 305 308 310 310 308 305 304 305 305 297 289 282 309 324 316 295 266 242 223 218 214 211 209 211 211 215 217 216 217 220 224 224 219 211
297 295 295 294 292 288 289 291 294 294 296 301 304 307 308 312 314 311 304 290 290 303 312 317 314 297 280 255 224 218 215 213 211 210 209 211 215 217 218 222 225 224 222 218
297 297 296 295 294 291 287 288 288 288 291 290 290 295 299 303 306 306 299 289 300 316 314 315 312 302 291 272 228 221 216 213 212 212 211 214 219 222 222 223 224 224 222 222
295 294 294 295 294 293 291 287 282 282 284 282 281 283 288 293 298 297 283 280 304 314 314 307 305 304 302 284 235 224 222 221 219 216 217 218 222 226 227 227 227 226 224 223
292 291 291 292 292 293 292 286 279 276 275 274 273 275 276 280 282 283 288 288 300 308 308 297 303 307 302 282 246 234 230 230 230 228 227 227 229 232 234 232 231 229 227 226
291 291 290 290 291 288 287 286 281 273 269 269 265 263 264 270 271 258 266 284 294 301 297 305 314 311 306 279 253 242 240 241 239 238 238 237 237 237 238 237 237 235 233 231
288 288 288 288 287 283 284 288 288 281 273 267 264 259 252 247 253 268 270 275 286 294 293 304 316 318 307 283 267 256 250 247 251 251 246 245 244 243 242 240 238 239 237 235
284 285 284 280 278 279 283 282 281 281 278 275 272 262 251 245 248 254 258 265 271 277 281 291 303 310 303 295 287 278 270 267 264 259 256 257 255 254 253 250 248 245 244 243
283 281 281 283 279 272 272 272 272 274 271 269 273 269 256 248 243 242 246 251 257 260 263 271 281 287 291 293 292 291 287 282 278 274 271 266 264 262 261 257 256 253 249 247
Height
1496 1496 1496 1496 1495 1497 1500 1496 1495 1488 1488 1486 1487 1487 1487 1487 1487 1487 1486 1486 1486 1488 1490 1493 1496 1498 1500 1501 1502 1502 1501 1500 1500 1499 1498 1498 1498 1499 1499 1500 1500 1500 1500 1500
1499 1498 1497 1497 1494 1494 1494 1493 1491 1490 1487 1485 1486 1487 1486 1485 1483 1482 1482 1482 1482 1484 1486 1488 1491 1493 1495 1497 1497 1497 1497 1496 1495 1495 1495 1495 1496 1496 1497 1497 1498 1498 1498 1498
1495 1498 1496 1491 1488 1489 1490 1489 1489 1487 1484 1484 1484 1484 1482 1480 1479 1477 1476 1477 1477 1479 1481 1484 1486 1489 1491 1492 1493 1493 1492 1492 1491 1492 1492 1492 1493 1494 1495 1495 1496 1496 1497 1497
1497 1498 1498 1488 1490 1490 1489 1488 1489 1488 1486 1485 1484 1481 1477 1475 1474 1472 1471 1471 1472 1474 1476 1479 1482 1484 1486 1487 1488 1488 1488 1488 1488 1488 1489 1490 1491 1492 1493 1494 1494 1495 1495 1496
1495 1492 1487 1487 1489 1489 1489 1487 1489 1488 1486 1484 1481 1476 1471 1470 1469 1467 1466 1466 1467 1469 1471 1474 1476 1479 1481 1482 1483 1483 1483 1484 1484 1485 1486 1488 1489 1490 1491 1492 1493 1494 1494 1495
1495 1492 1487 1487 1489 1489 1490 1485 1489 1488 1486 1483 1480 1474 1469 1468 1465 1463 1461 1461 1462 1464 1466 1469 1472 1474 1476 1477 1478 1479 1480 1480 1481 1482 1484 1485 1487 1488 1490 1491 1492 1493 1493 1494
1493 1491 1485 1489 1490 1490 1488 1487 1490 1488 1485 1483 1480 1476 1472 1466 1463 1460 1458 1458 1459 1460 1462 1465 1467 1470 1471 1473 1474 1476 1477 1477 1478 1480 1481 1483 1485 1487 1488 1489 1490 1491 1492 1492
1491 1491 1490 1491 1490 1491 1491 1491 1489 1486 1484 1481 1477 1473 1468 1465 1461 1459 1457 1456 1457 1458 1460 1462 1464 1466 1468 1470 1471 1473 1473 1475 1476 1477 1479 1481 1483 1484 1486 1487 1489 1489 1490 1490
1491 1491 1493 1493 1493 1493 1492 1490 1487 1485 1481 1478 1474 1471 1467 1464 1461 1459 1458 1457 1457 1457 1459 1460 1462 1463 1465 1467 1468 1469 1471 1472 1473 1475 1477 1478 1480 1482 1483 1485 1486 1487 1488 1488
1494 1492 1493 1493 1492 1491 1490 1488 1485 1482 1479 1476 1472 1469 1466 1463 1461 1459 1458 1457 1456 1457 1457 1458 1460 1461 1462 1464 1465 1467 1468 1469 1471 1472 1474 1475 1477 1479 1480 1482 1483 1484 1485 1486
1495 1494 1493 1491 1492 1490 1487 1484 1481 1478 1476 1473 1470 1467 1464 1462 1460 1458 1457 1456 1456 1455 1456 1457 1457 1458 1459 1460 1462 1463 1465 1466 1467 1469 1471 1472 1474 1476 1477 1479 1480 1481 1482 1483
1497 1497 1497 1492 1490 1487 1484 1480 1477 1474 1471 1469 1467 1464 1461 1459 1457 1456 1455 1454 1453 1453 1453 1453 1454 1454 1456 1457 1458 1459 1461 1462 1464 1465 1467 1469 1470 1472 1473 1475 1476 1477 1478 1479
1499 1496 1493 1489 1486 1483 1480 1476 1473 1470 1467 1464 1462 1460 1458 1455 1454 1452 1451 1450 1450 1449 1449 1449 1450 1450 1451 1452 1454 1455 1456 1458 1460 1461 1463 1464 1466 1467 1469 1470 1471 1472 1473 1474
1496 1493 1489 1485 1482 1479 1476 1472 1469 1466 1463 1461 1458 1455 1453 1451 1449 1448 1447 1446 1445 1445 1445 1445 1445 1445 1446 1447 1449 1450 1451 1453 1454 1456 1458 1459 1461 1462 1464 1465 1466 1466 1468 1469
1492 1490 1487 1482 1478 1475 1472 1468 1465 1462 1459 1456 1454 1451 1449 1447 1445 1443 1442 1441 1441 1440 1440 1440 1440 1440 1441 1442 1443 1444 1445 1447 1448 1450 1452 1453 1455 1456 1458 1459 1460 1461 1462 1463
1488 1485 1482 1479 1475 1471 1468 1464 1461 1458 1455 1452 1449 1447 1445 1442 1440 1439 1438 1437 1436 1435 1435 1435 1435 1435 1436 1436 1437 1438 1439 1440 1442 1443 1445 1446 1448 1449 1450 1451 1452 1453 1454 1456
1485 1481 1478 1474 1471 1468 1464 1461 1458 1454 1451 1448 1445 1443 1440 1438 1436 1434 1433 1432 1431 1430 1430 1429 1429 1429 1430 1430 1431 1432 1433 1434 1435 1437 1438 1439 1440 1442 1443 1444 1444 1445 1447 1448
1483 1479 1476 1472 1468 1464 1460 1457 1454 1451 1447 1444 1441 1438 1436 1434 1432 1430 1428 1427 1426 1425 1425 1424 1424 1424 1424 1425 1425 1426 1427 1428 1429 1430 1431 1432 1433 1434 1435 1436 1437 1438 1439 1440
1479 1475 1472 1468 1465 1461 1457 1454 1451 1447 1444 1441 1438 1435 1432 1430 1428 1426 1424 1423 1421 1421 1420 1419 1419 1419 1419 1419 1420 1420 1421 1422 1423 1424 1425 1426 1427 1427 1428 1429 1429 1430 1431 1432
1474 1471 1468 1464 1461 1457 1453 1450 1447 1443 1440 1438 1434 1432 1429 1427 1424 1422 1420 1419 1417 1416 1416 1415 1414 1414 1414 1414 1415 1415 1416 1416 1417 1418 1419 1420 1420 1421 1421 1422 1422 1422 1423 1423
1470 1466 1463 1459 1456 1452 1449 1446 1442 1439 1437 1434 1431 1428 1426 1424 1421 1419 1417 1416 1415 1413 1412 1411 1411 1410 1410 1410 1410 1410 1411 1411 1412 1412 1413 1413 1414 1414 1414 1415 1415 1415 1415 1416
1465 1462 1458 1455 1451 1447 1444 1441 1438 1435 1433 1430 1428 1425 1423 1421 1419 1416 1414 1413 1412 1410 1409 1408 1407 1407 1406 1406 1406 1406 1406 1406 1407 1407 1407 1407 1408 1408 1408 1408 1408 1408 1409 1409
1460 1457 1453 1450 1446 1442 1439 1436 1433 1430 1428 1426 1424 1422 1419 1417 1415 1413 1412 1410 1409 1407 1406 1405 1404 1403 1403 1402 1402 1402 1402 1402 1402 1402 1402 1402 1402 1402 1402 1402 1402 1402 1402 1403
1455 1452 1449 1445 1441 1438 1434 1431 1428 1425 1423 1421 1419 1418 1416 1414 1412 1410 1409 1407 1406 1405 1404 1402 1401 1400 1400 1399 1399 1398 1398 1398 1398 1398 1397 1397 1397 1397 1397 1397 1397 1397 1397 1398
1450 1447 1443 1440 1436 1432 1429 1425 1422 1420 1418 1416 1414 1413 1411 1410 1408 1407 1405 1404 1403 1402 1401 1400 1399 1398 1397 1396 1396 1395 1395 1394 1394 1393 1393 1393 1393 1392 1392 1392 1392 1393 1393 1394
1445 1441 1438 1435 1432 1428 1424 1421 1418 1415 1413 1410 1409 1408 1407 1405 1404 1403 1402 1401 1400 1399 1398 1397 1396 1395 1394 1393 1393 1392 1391 1391 1390 1390 1389 1389 1389 1388 1388 1388 1388 1388 1389 1389
1439 1436 1432 1429 1426 1423 1420 1416 1413 1410 1408 1406 1404 1403 1402 1400 1400 1399 1398 1397 1397 1396 1395 1394 1393 1392 1391 1390 1390 1389 1388 1387 1387 1386 1386 1385 1385 1384 1384 1384 1384 1384 1384 1384